Tracking 30105 objects as of 25-Jan-2025
HD Live streaming from Space Station
objects crossing your sky now

ATLAS 5 CENTAUR DEB

Track ATLAS 5 CENTAUR DEB now!


NORAD ID: 44642
Int'l Code: 2018-079C
Perigee: 8,332.9 km
Apogee: 35,087.3 km
Inclination: 12.7 °
Period: 780.5 minutes
Semi major axis: 28081 km
RCS: Unknown
Launch date: October 17, 2018
Source: United States (US)
Launch site: AIR FORCE EASTERN TEST RANGE (AFETR)

Note: This is SATELLITE DEBRIS
Your satellite tracking list
Your tracking list is empty




NASA's NSSDC Master Catalog

Two Line Element Set (TLE):
1 44642U 18079C   25024.18757485 -.00000174  00000-0  00000-0 0  9996
2 44642  12.6525  73.0945 4763773 244.7301  59.1252  1.84493702 42254
Source of the keplerian elements: AFSPC